Tracking 19574 objects as of 16-Feb-2019
HD Live streaming from Space Station
objects crossing your sky now

GOES 7 AKM

Track GOES 7 AKM now!


NORAD ID: 28520
Int'l Code: 1987-022F
Perigee: 31,703.5 km
Apogee: 40,737.6 km
Inclination: 14.4 °
Period: 1,458.0 minutes
Semi major axis: 42591 km
RCS: 0.3162 m2 (medium)
Launch date: February 26, 1987
Source: United States (US)
Launch site: AIR FORCE EASTERN TEST RANGE (AFETR)

Note: This is a ROCKET BODY
aabbcc
Your satellite tracking list
Your tracking list is empty




NASA's NSSDC Master Catalog

Two Line Element Set (TLE):
1 28520U 87022F   19045.98756036 -.00000014 +00000-0 +00000-0 0  9995
2 28520 014.4367 341.6842 1060545 016.8745 177.0260 00.98768296019518
Source of the keplerian elements: AFSPC